Retour au catalogue

FENGYUN 1C DEB

ActifSSO
NORAD 37712·DEBRIS·🇨🇳 China

Lancé May 10, 1999 depuis Taiyuan Satellite Launch Center

Loading…

Prochains Passages (prochaines 24 heures)

TLE

FraisSource: Space-Track

Époque: Sep 13, 2026, 05:30 UTC

1 37712U 99025EMD 26256.22948124  .00000745  00000-0  25783-3 0  9992
2 37712  98.8549  47.4770 0077659 262.9083 222.0098 14.37124574679023

Suivez FENGYUN 1C DEB en temps réel avec AllMySat

Download on the App Store